Theta_e
304 304 305 305 305 305 305 305 306 306 305 304 304 304 303 303 304 303 300 305 299 293 296 298 299 295 296 295 291 297 296 298 296 292 291 291 292 294 294 297 294 293 290 290 292 289 286 302 300 293 301 304 302 302
304 304 304 304 304 304 305 305 305 306 305 304 304 304 303 303 303 302 297 305 304 296 296 301 301 302 301 300 296 297 295 295 297 295 295 296 294 295 295 289 299 292 297 294 295 295 301 302 302 304 303 301 301 302
303 303 303 304 304 304 305 305 305 305 305 305 304 304 303 303 303 302 301 304 301 296 296 297 296 302 305 304 305 293 296 298 299 301 296 296 293 297 291 293 295 298 300 296 295 299 300 301 302 302 302 303 302 303
303 303 303 303 303 303 304 304 305 305 305 305 304 304 304 304 303 302 300 306 302 296 290 293 303 300 304 304 302 302 300 302 302 300 294 294 293 299 294 296 295 298 297 295 294 298 299 301 301 304 302 303 302 303
302 303 303 303 303 303 303 303 304 305 305 304 304 304 304 303 303 303 302 304 302 294 289 291 298 301 302 303 300 300 299 296 295 295 295 293 296 296 296 296 294 298 295 292 292 298 300 301 302 302 302 302 302 301
301 302 302 303 303 303 303 303 304 305 304 304 304 303 303 303 302 299 296 303 303 300 291 287 298 298 300 300 300 300 299 297 294 295 296 298 301 297 291 290 296 299 300 300 297 302 300 301 303 303 302 301 302 301
301 302 302 303 303 303 303 303 304 303 303 302 302 302 302 302 302 296 294 297 301 302 290 288 291 297 300 300 301 299 300 298 296 296 296 297 297 295 292 290 295 298 299 300 302 302 299 302 299 302 302 302 302 301
301 302 303 304 303 303 303 303 303 302 302 302 301 301 302 301 301 298 301 303 303 295 294 287 288 292 299 294 292 299 297 297 298 297 298 296 298 296 291 296 298 299 300 300 301 303 302 303 302 301 303 302 300 301
302 303 304 303 303 303 303 303 301 301 301 301 301 302 301 298 296 298 300 302 304 297 289 290 285 285 296 291 287 297 298 291 299 294 294 297 295 291 294 296 297 299 299 300 300 302 301 299 299 299 300 300 300 301
302 303 303 303 304 303 302 301 301 301 301 301 300 297 292 300 300 301 294 294 294 294 294 288 292 288 293 291 289 296 296 290 288 293 299 294 293 297 300 301 300 300 301 301 299 298 299 298 299 300 302 303 302 302
301 301 302 301 302 302 302 301 301 301 300 299 296 297 301 301 298 296 291 289 291 287 291 291 292 289 297 288 291 295 292 293 287 292 292 290 292 297 301 300 302 302 302 302 303 302 302 302 301 302 302 302 303 303
300 301 301 301 300 300 301 301 301 300 300 298 297 300 300 295 292 287 288 291 288 285 290 290 290 292 294 298 293 295 289 292 285 297 292 287 293 299 301 301 302 303 303 302 302 302 302 302 303 303 303 303 303 304
300 299 300 301 301 301 301 301 301 300 301 302 296 291 292 291 283 283 281 286 287 291 290 291 288 291 294 296 292 292 287 288 298 289 287 293 297 299 301 301 301 303 302 302 302 302 303 304 305 305 304 305 305 303
299 299 300 300 300 301 301 301 300 301 299 293 289 284 286 285 287 287 287 288 291 293 292 291 289 290 294 291 293 287 293 291 286 286 287 295 299 299 300 302 302 301 301 301 301 302 303 303 303 305 306 306 305 303
299 299 300 299 299 300 300 299 300 302 296 290 290 283 287 292 293 292 293 291 293 293 290 289 289 292 291 289 292 291 288 284 287 287 294 299 301 301 302 302 301 301 302 302 303 303 303 303 304 305 305 306 306 305
299 299 300 299 299 299 299 301 301 301 295 292 290 287 291 290 290 291 290 291 295 293 293 293 289 289 288 290 288 286 285 284 288 296 300 302 303 303 303 302 303 303 304 304 304 304 304 304 305 306 306 306 306 305
299 299 298 299 299 300 300 298 297 292 292 289 290 296 291 291 290 292 293 293 296 293 290 293 287 287 293 288 287 287 286 292 297 300 303 304 304 304 305 304 304 304 304 305 305 305 305 307 307 305 305 306 306 306
298 299 299 299 300 301 300 300 296 293 288 293 289 291 293 294 292 293 294 296 294 292 292 290 294 288 287 284 286 291 298 301 301 302 304 305 306 305 305 304 304 304 305 304 305 306 306 305 305 304 308 308 306 306
299 300 298 299 298 296 295 296 296 289 291 293 294 294 294 295 296 296 296 297 297 298 295 293 289 287 286 287 289 297 300 301 301 303 304 307 308 307 306 306 305 305 305 305 306 306 306 307 307 307 305 305 303 304
298 298 298 299 298 297 290 294 299 292 289 292 294 292 294 294 297 296 296 295 295 295 291 290 288 288 290 296 300 299 301 303 302 300 301 303 305 307 307 306 305 306 304 305 306 296 306 306 307 307 306 306 305 305
296 299 299 299 301 299 296 294 292 294 293 291 294 293 294 296 294 293 293 296 294 291 290 289 292 297 302 302 303 303 302 303 302 301 300 301 304 305 305 306 307 306 305 304 304 303 298 305 306 306 308 308 307 306
299 297 298 299 295 295 293 297 293 295 293 292 292 295 293 293 292 293 295 291 290 291 293 294 296 299 301 302 302 304 304 304 304 301 296 299 302 302 303 306 306 305 304 305 305 305 306 307 307 307 307 307 304 305
297 298 295 294 289 290 288 297 289 291 288 291 293 291 292 292 294 299 291 293 293 297 298 299 301 304 304 304 305 305 305 304 301 301 302 302 305 306 305 306 308 306 304 307 308 308 308 297 303 307 308 309 307 304
294 294 289 290 291 287 294 290 294 291 292 291 290 287 290 294 297 293 289 291 294 297 298 298 301 301 301 303 302 304 305 305 303 302 303 303 303 305 307 306 307 309 308 308 309 309 309 308 301 308 309 309 305 305
288 287 289 285 292 288 286 287 288 289 286 289 288 289 292 297 291 289 289 292 294 295 296 297 299 301 301 301 303 304 306 304 303 301 303 304 304 305 305 306 309 310 310 307 307 307 307 309 309 307 308 307 305 301
282 288 286 288 289 286 287 285 286 287 289 287 289 292 294 292 287 285 290 292 294 295 296 296 295 296 299 302 303 303 303 305 305 302 305 307 306 304 304 304 304 306 311 311 309 308 307 308 307 308 307 303 292 301
283 286 291 295 292 289 287 291 291 291 287 286 289 288 288 283 284 289 296 297 293 296 299 300 300 299 299 301 305 306 307 308 306 305 309 309 308 309 309 307 306 309 312 312 311 311 309 308 308 308 307 307 304 304
290 289 285 290 290 290 286 288 287 287 288 291 292 285 283 284 286 294 298 299 300 300 301 302 303 302 302 304 307 306 307 308 309 309 308 307 308 309 310 310 312 292 310 313 312 313 312 310 309 308 307 306 300 302
288 292 291 286 287 289 288 288 289 292 294 293 289 288 288 294 299 299 302 300 301 302 300 300 300 302 304 305 306 307 307 306 304 302 301 301 302 305 308 309 310 311 311 312 292 299 304 305 307 308 307 302 300 299
289 293 289 287 285 285 291 295 291 294 296 297 298 297 297 299 300 302 300 300 299 298 302 302 302 300 300 300 300 303 304 305 305 303 300 300 302 305 306 306 307 307 309 308 309 311 291 300 301 307 302 301 298 295
291 291 289 289 288 290 293 297 296 297 296 294 297 296 295 299 300 301 299 299 299 299 299 298 299 301 300 299 300 300 300 303 303 303 301 302 303 303 302 302 304 306 306 306 306 307 308 308 306 305 301 300 296 293
289 287 288 286 289 293 293 292 293 291 293 292 294 296 296 294 292 297 299 299 297 297 293 298 299 299 301 303 303 302 289 302 301 300 298 297 297 297 298 300 300 301 302 303 304 305 304 305 305 304 303 296 295 293
291 292 292 290 290 289 294 292 292 290 291 292 293 294 294 294 289 298 304 304 302 298 297 298 301 303 303 303 302 301 296 302 295 286 286 285 285 288 294 297 297 298 299 301 302 302 301 301 301 300 302 299 295 293
Wind_Speed
9 10 11 11 12 12 12 12 12 12 11 10 9 9 8 6 6 7 6 5 6 6 16 21 18 15 13 12 12 9 8 11 9 13 14 13 12 12 16 16 16 9 9 12 16 14 13 5 6 6 7 2 5 8
10 11 11 11 12 12 12 12 12 12 12 11 11 9 8 8 8 8 10 4 3 6 15 20 20 20 20 17 9 7 10 10 4 6 7 5 7 7 11 10 10 11 10 3 5 3 4 4 5 5 5 6 8 8
11 12 12 12 12 13 13 13 13 14 12 11 12 11 10 10 9 8 8 7 5 7 13 15 12 11 12 13 12 14 10 6 7 2 3 5 7 4 7 10 6 6 4 5 3 9 7 4 0 4 3 7 8 7
11 12 13 13 13 13 14 15 13 14 12 11 11 11 12 10 7 7 5 5 4 4 7 8 6 4 5 8 9 11 17 8 10 9 3 5 4 7 3 3 8 2 5 8 4 9 9 10 5 7 4 4 4 7
12 13 14 14 14 14 14 14 14 13 14 10 10 10 11 9 8 10 9 6 4 3 6 12 19 13 9 7 14 14 10 9 9 7 8 9 3 5 7 6 7 8 2 5 3 6 2 8 3 0 4 5 5 6
13 14 15 15 14 14 14 15 15 16 8 7 9 10 8 7 9 6 3 5 6 4 4 7 6 9 9 7 6 10 8 8 7 3 5 5 6 7 4 6 8 9 6 4 3 5 4 1 3 2 2 3 5 6
15 16 17 15 14 13 13 14 12 2 3 6 7 7 6 5 7 3 4 2 6 3 3 6 3 5 5 6 4 5 8 5 6 5 5 5 4 4 4 7 6 7 3 5 6 1 0 3 1 3 1 1 3 4
16 17 17 16 13 11 11 12 5 4 4 5 4 4 6 8 10 8 3 5 6 3 5 5 6 3 5 3 3 4 4 5 5 4 4 5 5 6 4 8 11 5 6 8 6 2 3 1 2 3 3 2 4 6
16 16 15 12 9 8 9 5 3 2 5 5 8 11 9 5 3 2 4 6 5 5 5 4 6 4 4 2 3 4 4 4 4 5 5 4 3 4 4 5 8 9 4 4 6 6 5 2 5 5 4 3 6 7
14 16 12 13 13 5 4 2 3 3 3 7 8 3 3 1 2 1 2 3 5 4 4 6 5 6 4 4 3 2 3 2 5 7 4 4 4 3 6 7 8 8 9 7 5 8 7 5 6 4 6 7 7 7
13 13 12 12 12 10 5 3 3 3 7 3 2 2 3 5 4 4 5 6 3 3 3 3 7 8 2 4 2 3 2 3 3 4 4 3 2 5 6 7 5 4 7 4 9 9 7 6 5 7 7 7 7 7
12 13 12 10 9 8 11 8 4 4 3 4 6 6 3 4 5 5 3 2 4 1 3 2 3 4 5 4 3 1 1 3 0 0 2 1 1 4 9 9 9 8 9 9 9 10 8 7 8 9 9 8 8 7
12 10 11 12 13 9 8 6 4 8 10 5 5 4 3 3 3 4 3 3 4 5 2 2 3 3 5 4 4 2 3 3 2 2 1 3 7 11 10 10 11 10 11 10 10 8 10 11 11 10 9 9 8 7
9 9 10 11 14 9 8 7 5 6 5 4 3 4 3 1 5 5 6 6 7 7 7 5 3 3 3 3 1 3 2 2 3 3 5 7 7 11 10 10 10 11 10 10 9 9 9 9 8 8 7 7 8 8
6 7 9 10 12 9 9 7 9 5 3 4 4 3 4 6 3 4 6 6 3 3 3 2 3 3 2 4 3 4 2 3 4 6 7 6 6 9 10 11 11 10 9 8 8 8 8 6 6 6 6 6 7 7
9 9 6 8 11 11 11 11 5 3 3 4 4 5 4 2 6 5 6 6 5 2 2 3 3 3 2 3 4 5 5 5 4 7 7 7 6 10 8 8 7 8 9 7 7 6 5 3 4 3 4 5 5 7
15 4 8 10 15 16 13 5 3 4 4 4 2 2 6 5 7 6 5 7 7 4 1 3 1 4 3 3 4 4 3 4 4 9 8 6 7 6 7 9 6 6 6 6 6 5 4 1 2 2 4 4 4 7
2 2 6 11 13 6 3 3 3 3 5 2 4 6 5 5 7 6 6 7 8 8 6 5 4 5 5 5 2 3 3 6 7 7 7 6 6 6 5 5 5 5 5 4 4 4 3 4 3 2 1 1 2 5
10 9 10 10 9 6 3 2 3 5 2 3 5 3 5 4 4 5 7 8 7 6 4 5 5 4 3 2 3 4 6 6 5 7 7 6 5 5 5 5 4 5 4 4 5 4 2 2 3 4 3 4 4 6
11 8 8 10 7 3 5 2 2 5 4 4 5 4 3 3 3 4 8 8 7 3 5 4 3 3 3 4 3 2 5 6 4 8 8 6 7 6 5 3 5 5 5 4 5 3 6 4 3 2 6 4 5 6
8 4 5 4 1 3 3 4 4 2 5 4 3 4 2 1 3 6 8 6 6 4 3 2 4 7 7 3 5 6 8 9 8 8 6 4 3 4 4 4 3 1 1 2 5 6 7 3 4 3 1 3 4 6
5 5 2 2 3 2 3 2 5 5 3 4 4 2 2 0 4 5 9 6 4 2 4 6 7 7 4 8 8 8 7 5 4 5 5 4 4 6 4 3 2 3 4 4 3 4 6 4 5 4 1 5 4 6
5 3 3 2 2 2 5 2 3 3 4 5 5 2 1 1 3 0 4 4 2 4 7 8 9 5 4 7 7 8 8 7 4 2 5 5 3 5 4 4 4 5 1 3 6 4 7 5 1 6 7 2 4 4
1 4 3 2 2 4 1 2 2 1 3 3 3 2 4 3 2 2 5 3 4 7 8 11 10 8 4 7 8 8 7 6 5 4 5 5 4 5 5 4 4 4 6 3 7 9 7 12 4 3 3 3 7 5
4 3 3 5 3 3 4 5 3 1 3 3 3 4 3 3 0 4 4 3 5 6 8 8 9 11 8 8 7 6 9 7 6 5 6 6 8 7 7 8 8 8 7 8 8 9 5 1 5 5 4 3 9 6
3 3 2 5 3 4 4 4 4 5 3 3 3 3 4 3 5 4 3 5 5 5 7 7 7 7 8 8 7 7 7 6 6 6 7 7 7 8 9 11 6 3 10 9 10 10 10 7 6 7 10 9 7 3
3 2 4 4 3 3 3 4 3 1 4 5 3 4 4 4 4 3 3 4 3 5 6 6 5 5 5 7 8 6 5 4 5 5 5 6 6 7 7 7 9 9 9 10 10 10 11 8 5 4 5 8 6 3
3 3 2 1 3 1 3 4 4 5 4 4 2 3 3 3 2 3 4 2 4 5 4 4 4 5 5 7 8 6 7 8 4 5 2 3 5 6 9 8 7 5 7 8 10 11 11 11 12 6 8 8 4 2
2 2 2 2 2 2 3 3 4 4 4 4 4 2 0 2 1 2 1 3 4 3 4 3 5 5 6 3 6 6 6 7 10 11 10 8 7 8 9 9 9 9 9 11 4 6 7 8 10 6 11 9 4 5
2 3 1 1 2 1 2 3 2 3 3 2 2 2 2 0 2 3 4 4 3 4 4 4 3 5 6 7 6 6 7 9 9 9 9 10 10 10 10 11 11 10 9 10 11 8 1 6 8 7 7 5 5 4
1 2 2 2 1 3 4 2 1 1 0 0 1 1 0 1 2 4 4 5 6 5 5 5 4 4 5 6 6 8 6 8 8 9 10 9 9 10 10 11 11 11 10 10 10 10 10 8 4 6 7 5 7 5
1 1 2 0 2 3 2 2 1 1 1 1 1 1 1 2 2 3 3 4 5 5 5 6 4 4 4 6 6 4 2 5 6 7 10 9 10 12 12 10 10 11 12 12 10 9 11 12 9 5 7 10 9 6
2 1 3 1 3 4 3 3 3 2 2 1 1 0 2 3 1 2 0 0 1 2 4 4 5 4 4 5 6 6 6 7 8 6 3 3 5 8 10 9 11 11 12 10 8 8 9 10 10 11 1 10 10 7
Wind_Direction
310 310 308 305 306 307 305 301 293 295 304 303 295 292 301 329 337 297 299 268 294 284 284 280 284 286 280 277 281 328 300 221 244 239 250 251 253 247 249 253 186 226 214 219 230 234 243 171 153 248 61 13 329 328
310 308 306 307 308 307 304 303 297 291 292 301 295 281 286 294 302 298 282 321 268 259 290 303 284 278 271 268 281 267 285 296 330 288 246 271 229 249 227 236 239 212 216 256 241 65 109 137 74 43 4 317 304 331
309 310 309 306 307 310 307 300 292 295 279 282 284 284 279 279 288 285 294 275 284 279 274 257 253 232 235 239 251 253 252 300 264 345 286 309 274 288 234 240 211 247 184 226 159 176 175 151 167 260 286 13 356 314
311 309 307 305 302 305 307 309 294 289 278 274 280 282 282 271 275 261 255 263 269 288 284 296 15 277 251 242 238 231 257 235 289 273 276 258 285 338 352 282 244 42 284 245 221 230 185 218 81 41 338 285 296 339
324 319 310 301 298 299 301 306 307 286 294 271 286 283 286 273 240 266 269 268 266 256 305 303 305 303 250 249 221 235 248 251 247 263 247 242 259 262 241 254 239 184 245 244 305 351 338 92 70 350 300 343 352 338
326 322 316 311 301 297 300 304 299 293 274 276 286 291 290 232 245 279 261 51 24 16 307 283 331 228 237 220 262 236 205 230 235 269 251 254 195 246 264 261 257 285 182 297 300 123 42 132 206 113 347 344 13 315
324 319 318 311 302 297 301 306 312 289 269 276 284 287 269 242 256 250 302 98 206 157 240 264 278 355 14 319 281 201 155 220 235 240 247 256 210 221 248 241 320 126 129 184 104 122 275 24 253 348 62 2 202 300
327 322 317 305 298 295 302 313 310 305 281 280 278 274 270 273 274 257 321 192 199 254 254 265 286 179 358 1 292 182 173 196 218 257 265 246 172 217 219 247 181 128 168 153 165 159 203 296 233 95 109 310 314 294
334 335 329 334 309 289 301 286 302 288 287 271 272 279 272 232 226 79 9 286 216 243 299 253 287 339 117 189 267 216 186 208 207 229 227 253 198 213 238 206 146 161 123 112 184 201 133 121 64 51 21 326 316 334
350 355 6 2 358 269 282 273 262 291 277 283 275 226 231 65 144 142 2 210 199 218 239 272 314 289 304 22 305 175 181 268 193 210 176 223 230 184 165 122 114 152 156 190 190 161 127 104 57 15 16 7 353 356
358 358 2 9 16 17 8 331 310 265 247 232 272 285 337 139 234 222 219 210 177 219 224 322 313 309 143 274 24 158 203 274 249 180 187 206 214 151 183 172 178 172 163 165 94 81 80 62 36 29 26 23 25 26
12 6 2 359 348 349 346 334 273 270 353 331 304 273 275 247 237 260 253 233 232 47 165 268 315 309 296 300 290 31 293 253 137 131 154 155 132 138 134 149 130 123 136 110 112 101 93 74 60 57 48 40 41 41
10 5 9 13 17 26 16 3 287 306 290 251 220 238 208 221 297 258 29 358 9 8 91 274 315 288 270 241 262 209 299 40 152 78 259 108 161 175 120 119 119 115 104 113 108 113 106 94 75 60 57 51 46 35
5 17 26 21 7 353 6 1 341 290 275 281 299 287 265 302 18 12 356 353 334 328 334 338 274 244 287 275 322 272 262 120 209 197 85 130 134 110 122 118 130 107 112 126 128 125 120 93 87 76 62 49 43 31
328 306 314 30 13 32 0 326 306 275 292 288 297 308 346 35 61 28 7 306 313 308 305 255 243 248 280 276 255 265 244 32 1 92 116 119 122 117 107 99 111 128 136 132 130 136 122 134 110 85 58 52 37 32
319 283 16 358 341 332 319 290 258 275 267 267 283 325 10 318 19 23 318 358 323 314 269 238 296 269 250 294 331 39 332 5 93 97 99 113 103 108 117 114 119 124 120 123 122 134 131 128 81 105 101 36 31 18
301 39 12 344 329 304 282 274 240 252 295 263 286 312 330 346 341 353 345 5 352 340 6 203 244 28 354 301 48 2 26 92 105 93 92 98 114 121 127 126 131 130 123 126 140 156 122 152 253 272 36 45 24 8
319 27 12 345 330 292 284 269 292 266 265 306 318 10 341 322 333 359 355 11 9 3 343 5 316 22 20 17 28 307 216 99 64 70 61 79 100 120 138 142 143 135 128 156 189 155 180 256 326 292 243 173 146 21
345 328 342 333 326 295 315 4 342 289 309 340 327 346 305 332 8 344 25 34 20 337 340 8 33 15 345 294 271 65 59 60 78 84 93 85 77 85 108 131 129 130 151 170 200 212 126 357 351 334 339 22 34 52
299 271 289 301 286 297 285 135 222 260 294 15 305 327 322 6 332 27 56 37 354 18 45 33 18 293 283 302 219 312 23 72 351 79 75 68 102 96 36 74 83 134 168 142 200 290 244 237 218 81 34 29 0 41
234 33 293 266 221 277 301 294 253 360 323 297 352 304 295 303 57 52 58 41 30 30 14 348 302 320 309 35 20 17 46 25 45 55 23 27 22 112 135 140 228 61 112 116 168 151 233 35 27 9 23 55 54 49
34 309 299 256 283 293 277 299 309 322 276 295 279 306 315 350 84 63 77 40 39 346 340 330 346 329 357 47 55 27 21 33 83 78 321 286 51 57 41 36 32 24 73 56 20 17 20 17 7 0 19 102 99 54
268 221 257 253 12 274 260 352 287 330 303 343 312 259 171 25 67 25 87 57 25 330 336 356 322 284 336 70 68 59 23 354 71 339 351 344 35 37 10 40 54 105 216 28 3 352 352 42 242 303 85 202 90 62
137 259 287 283 248 276 290 221 209 254 281 290 265 246 68 26 355 69 81 69 3 353 9 352 335 8 31 44 44 42 18 1 342 77 8 348 29 53 26 33 99 25 30 35 316 69 21 318 297 105 80 63 87 63
285 283 211 247 243 330 309 350 351 22 296 12 342 33 39 334 152 64 69 62 29 14 1 1 357 351 2 16 16 45 37 11 7 16 11 13 351 23 25 352 20 31 20 3 354 341 1 77 348 35 51 63 88 71
272 165 240 23 30 8 341 302 343 0 34 2 44 1 360 348 52 53 52 26 14 5 352 345 353 359 4 345 354 19 16 8 329 33 12 12 22 357 348 343 0 13 16 344 335 333 323 346 39 328 109 95 84 103
262 101 85 33 34 331 302 286 318 303 42 11 40 21 11 34 47 53 50 47 347 326 319 330 339 344 336 322 336 12 358 20 27 5 340 11 36 30 360 356 352 357 327 322 336 334 331 345 344 302 116 123 114 243
311 13 64 104 23 280 276 298 321 18 45 4 339 63 43 22 26 17 37 311 292 284 319 328 335 337 325 316 326 19 9 356 81 348 275 41 52 40 358 350 3 314 316 345 344 329 349 335 322 334 108 106 111 292
302 29 355 93 47 302 313 345 12 40 355 354 360 63 51 44 359 35 260 280 276 319 312 344 21 337 319 309 331 354 35 18 9 5 3 357 3 9 360 351 349 348 347 343 42 7 11 10 352 82 93 103 85 29
57 340 317 108 122 295 40 24 43 294 332 359 337 11 79 318 88 55 342 325 330 344 335 326 47 4 350 346 357 5 18 40 13 3 351 349 349 355 352 344 339 342 350 336 330 357 193 260 112 106 100 119 122 95
356 322 307 297 69 45 7 41 45 222 358 359 55 71 23 345 18 70 40 331 315 320 343 6 10 18 359 352 353 345 357 28 20 11 10 335 346 352 345 331 323 326 335 331 325 328 339 347 331 131 160 166 132 149
209 251 297 260 114 103 28 257 182 320 4 261 226 174 274 223 98 33 39 1 19 8 1 318 350 340 323 328 350 12 221 339 26 5 2 354 347 340 329 321 334 332 316 318 317 331 345 338 355 306 150 135 161 176
189 207 321 94 144 187 186 202 185 89 317 216 165 113 11 48 87 329 284 264 330 342 341 333 287 285 339 325 9 347 329 1 85 96 118 52 349 326 315 349 344 325 322 316 333 345 348 350 347 344 201 149 158 176